Year,Month,Day,Hour,Minute,Value (Times are PST for windspeed in km/hr)
2014,02,16,00,00,4.20
2014,02,16,00,01,5.90
2014,02,16,00,02,5.70
2014,02,16,00,03,6.90
2014,02,16,00,04,6.00
2014,02,16,00,05,6.20
2014,02,16,00,06,6.60
2014,02,16,00,07,6.80
2014,02,16,00,08,2.50
2014,02,16,00,09,2.10
2014,02,16,00,10,0.80
2014,02,16,00,11,2.90
2014,02,16,00,12,4.50
2014,02,16,00,13,4.40
2014,02,16,00,14,4.20
2014,02,16,00,15,2.80
2014,02,16,00,16,3.10
2014,02,16,00,17,5.40
2014,02,16,00,18,4.50
2014,02,16,00,19,10.30
2014,02,16,00,20,1.30
2014,02,16,00,21,4.30
2014,02,16,00,22,6.20
2014,02,16,00,23,5.30
2014,02,16,00,24,4.50
2014,02,16,00,25,4.70
2014,02,16,00,26,6.80
2014,02,16,00,27,4.20
2014,02,16,00,28,4.70
2014,02,16,00,29,6.50
2014,02,16,00,30,7.70
2014,02,16,00,31,7.80
2014,02,16,00,32,7.00
2014,02,16,00,33,5.90
2014,02,16,00,34,4.50
2014,02,16,00,35,4.90
2014,02,16,00,36,3.40
2014,02,16,00,37,3.20
2014,02,16,00,38,4.30
2014,02,16,00,39,5.10
2014,02,16,00,40,4.90
2014,02,16,00,41,4.40
2014,02,16,00,42,3.20
2014,02,16,00,43,1.50
2014,02,16,00,44,3.50
2014,02,16,00,45,3.50
2014,02,16,00,46,3.30
2014,02,16,00,47,9.90
2014,02,16,00,48,5.60
2014,02,16,00,49,2.70
2014,02,16,00,50,7.10
2014,02,16,00,51,9.20
2014,02,16,00,52,7.40
2014,02,16,00,53,11.00
2014,02,16,00,54,9.40
2014,02,16,00,55,9.80
2014,02,16,00,56,15.20
2014,02,16,00,57,11.70
2014,02,16,00,58,14.30
2014,02,16,00,59,16.30
2014,02,16,01,00,13.60
2014,02,16,01,01,18.70
2014,02,16,01,02,13.20
2014,02,16,01,03,15.20
2014,02,16,01,04,13.40
2014,02,16,01,05,17.50
2014,02,16,01,06,16.20
2014,02,16,01,07,19.30
2014,02,16,01,08,16.40
2014,02,16,01,09,14.60
2014,02,16,01,10,15.70
2014,02,16,01,11,16.10
2014,02,16,01,12,11.70
2014,02,16,01,13,14.00
2014,02,16,01,14,19.30
2014,02,16,01,15,16.90
2014,02,16,01,16,15.70
2014,02,16,01,17,14.00
2014,02,16,01,18,10.20
2014,02,16,01,19,12.20
2014,02,16,01,20,10.10
2014,02,16,01,21,11.40
2014,02,16,01,22,8.80
2014,02,16,01,23,11.60
2014,02,16,01,24,12.60
2014,02,16,01,25,11.70
2014,02,16,01,26,7.40
2014,02,16,01,27,9.90
2014,02,16,01,28,7.30
2014,02,16,01,29,10.30
2014,02,16,01,30,7.30
2014,02,16,01,31,6.70
2014,02,16,01,32,5.80
2014,02,16,01,33,8.80
2014,02,16,01,34,12.20
2014,02,16,01,35,6.60
2014,02,16,01,36,10.50
2014,02,16,01,37,16.60
2014,02,16,01,38,9.60
2014,02,16,01,39,12.70
2014,02,16,01,40,11.90
2014,02,16,01,41,12.70
2014,02,16,01,42,7.90
2014,02,16,01,43,6.00
2014,02,16,01,44,6.30
2014,02,16,01,45,11.50
2014,02,16,01,46,9.70
2014,02,16,01,47,14.70
2014,02,16,01,48,14.30
2014,02,16,01,49,15.60
2014,02,16,01,50,15.90
2014,02,16,01,51,16.90
2014,02,16,01,52,22.10
2014,02,16,01,53,18.30
2014,02,16,01,54,13.90
2014,02,16,01,55,10.20
2014,02,16,01,56,12.20
2014,02,16,01,57,13.00
2014,02,16,01,58,15.80
2014,02,16,01,59,16.30
2014,02,16,02,00,17.40
2014,02,16,02,01,11.90
2014,02,16,02,02,13.20
2014,02,16,02,03,16.40
2014,02,16,02,04,14.60
2014,02,16,02,05,10.70
2014,02,16,02,06,13.00
2014,02,16,02,07,13.20
2014,02,16,02,08,12.90
2014,02,16,02,09,12.20
2014,02,16,02,10,12.60
2014,02,16,02,11,11.80
2014,02,16,02,12,13.70
2014,02,16,02,13,11.70
2014,02,16,02,14,7.70
2014,02,16,02,15,11.70
2014,02,16,02,16,9.20
2014,02,16,02,17,7.90
2014,02,16,02,18,7.20
2014,02,16,02,19,7.70
2014,02,16,02,20,8.80
2014,02,16,02,21,7.40
2014,02,16,02,22,6.70
2014,02,16,02,23,7.20
2014,02,16,02,24,9.80
2014,02,16,02,25,5.80
2014,02,16,02,26,3.80
2014,02,16,02,27,5.30
2014,02,16,02,28,8.00
2014,02,16,02,29,9.30
2014,02,16,02,30,9.60
2014,02,16,02,31,8.60
2014,02,16,02,32,7.60
2014,02,16,02,33,7.00
2014,02,16,02,34,4.40
2014,02,16,02,35,6.20
2014,02,16,02,36,6.00
2014,02,16,02,37,7.50
2014,02,16,02,38,5.10
2014,02,16,02,39,5.40
2014,02,16,02,40,4.20
2014,02,16,02,41,5.60
2014,02,16,02,42,4.00
2014,02,16,02,43,4.10
2014,02,16,02,44,5.10
2014,02,16,02,45,5.70
2014,02,16,02,46,3.20
2014,02,16,02,47,4.00
2014,02,16,02,48,4.70
2014,02,16,02,49,4.60
2014,02,16,02,50,3.60
2014,02,16,02,51,2.20
2014,02,16,02,52,3.10
2014,02,16,02,53,2.00
2014,02,16,02,54,1.30
2014,02,16,02,55,0.70
2014,02,16,02,56,0.80
2014,02,16,02,57,0.10
2014,02,16,02,58,0.00
2014,02,16,02,59,0.30
2014,02,16,03,00,2.40
2014,02,16,03,01,3.10
2014,02,16,03,02,1.70
2014,02,16,03,03,2.50
2014,02,16,03,04,1.30
2014,02,16,03,05,2.40
2014,02,16,03,06,4.50
2014,02,16,03,07,6.80
2014,02,16,03,08,4.40
2014,02,16,03,09,6.10
2014,02,16,03,10,5.70
2014,02,16,03,11,3.70
2014,02,16,03,12,4.90
2014,02,16,03,13,4.90
2014,02,16,03,14,4.20
2014,02,16,03,15,3.20
2014,02,16,03,16,5.10
2014,02,16,03,17,6.00
2014,02,16,03,18,3.40
2014,02,16,03,19,8.20
2014,02,16,03,20,1.50
2014,02,16,03,21,3.30
2014,02,16,03,22,2.40
2014,02,16,03,23,1.90
2014,02,16,03,24,1.60
2014,02,16,03,25,2.90
2014,02,16,03,26,1.70
2014,02,16,03,27,3.20
2014,02,16,03,28,3.70
2014,02,16,03,29,3.20
2014,02,16,03,30,2.90
2014,02,16,03,31,2.10
2014,02,16,03,32,3.20
2014,02,16,03,33,2.30
2014,02,16,03,34,4.30
2014,02,16,03,35,6.20
2014,02,16,03,36,5.20
2014,02,16,03,37,3.10
2014,02,16,03,38,4.00
2014,02,16,03,39,0.40
2014,02,16,03,40,1.60
2014,02,16,03,41,2.50
2014,02,16,03,42,2.20
2014,02,16,03,43,2.90
2014,02,16,03,44,4.30
2014,02,16,03,45,2.20
2014,02,16,03,46,5.60
2014,02,16,03,47,4.00
2014,02,16,03,48,3.50
2014,02,16,03,49,2.00
2014,02,16,03,50,2.90
2014,02,16,03,51,2.50
2014,02,16,03,52,2.60
2014,02,16,03,53,0.70
2014,02,16,03,54,3.20
2014,02,16,03,55,2.90
2014,02,16,03,56,1.40
2014,02,16,03,57,2.60
2014,02,16,03,58,3.90
2014,02,16,03,59,4.80
2014,02,16,04,00,4.60
2014,02,16,04,01,5.50
2014,02,16,04,02,1.60
2014,02,16,04,03,3.90
2014,02,16,04,04,3.50
2014,02,16,04,05,1.60
2014,02,16,04,06,4.00
2014,02,16,04,07,3.50
2014,02,16,04,08,2.70
2014,02,16,04,09,4.50
2014,02,16,04,10,2.50
2014,02,16,04,11,3.30
2014,02,16,04,12,3.20
2014,02,16,04,13,4.50
2014,02,16,04,14,6.00
2014,02,16,04,15,3.40
2014,02,16,04,16,4.00
2014,02,16,04,17,4.00
2014,02,16,04,18,3.80
2014,02,16,04,19,5.90
2014,02,16,04,20,5.70
2014,02,16,04,21,3.30
2014,02,16,04,22,2.70
2014,02,16,04,23,4.90
2014,02,16,04,24,5.20
2014,02,16,04,25,5.70
2014,02,16,04,26,3.70
2014,02,16,04,27,3.00
2014,02,16,04,28,4.70
2014,02,16,04,29,7.00
2014,02,16,04,30,8.30
2014,02,16,04,31,6.10
2014,02,16,04,32,4.50
2014,02,16,04,33,3.00
2014,02,16,04,34,5.50
2014,02,16,04,35,6.00
2014,02,16,04,36,4.60
2014,02,16,04,37,2.70
2014,02,16,04,38,2.60
2014,02,16,04,39,2.50
2014,02,16,04,40,2.50
2014,02,16,04,41,1.60
2014,02,16,04,42,2.50
2014,02,16,04,43,3.20
2014,02,16,04,44,1.90
2014,02,16,04,45,0.40
2014,02,16,04,46,0.00
2014,02,16,04,47,1.40
2014,02,16,04,48,1.30
2014,02,16,04,49,0.00
2014,02,16,04,50,0.60
2014,02,16,04,51,1.40
2014,02,16,04,52,2.50
2014,02,16,04,53,2.50
2014,02,16,04,54,1.60
2014,02,16,04,55,1.10
2014,02,16,04,56,3.40
2014,02,16,04,57,2.80
2014,02,16,04,58,3.70
2014,02,16,04,59,2.10
2014,02,16,05,00,2.80
2014,02,16,05,01,3.20
2014,02,16,05,02,3.90
2014,02,16,05,03,5.10
2014,02,16,05,04,7.20
2014,02,16,05,05,5.10
2014,02,16,05,06,2.10
2014,02,16,05,07,3.30
2014,02,16,05,08,4.00
2014,02,16,05,09,3.70
2014,02,16,05,10,2.90
2014,02,16,05,11,2.60
2014,02,16,05,12,1.30
2014,02,16,05,13,1.60
2014,02,16,05,14,2.70
2014,02,16,05,15,2.10
2014,02,16,05,16,1.40
2014,02,16,05,17,1.60
2014,02,16,05,18,2.50
2014,02,16,05,19,1.30
2014,02,16,05,20,0.90
2014,02,16,05,21,0.70
2014,02,16,05,22,0.80
2014,02,16,05,23,0.60
2014,02,16,05,24,3.30
2014,02,16,05,25,3.30
2014,02,16,05,26,2.10
2014,02,16,05,27,1.30
2014,02,16,05,28,0.70
2014,02,16,05,29,1.50
2014,02,16,05,30,2.60
2014,02,16,05,31,1.30
2014,02,16,05,32,1.80
2014,02,16,05,33,3.70
2014,02,16,05,34,4.00
2014,02,16,05,35,1.50
2014,02,16,05,36,2.80
2014,02,16,05,37,1.90
2014,02,16,05,38,2.20
2014,02,16,05,39,4.30
2014,02,16,05,40,2.10
2014,02,16,05,41,0.30
2014,02,16,05,42,1.30
2014,02,16,05,43,2.40
2014,02,16,05,44,1.50
2014,02,16,05,45,4.20
2014,02,16,05,46,2.90
2014,02,16,05,47,3.30
2014,02,16,05,48,3.30
2014,02,16,05,49,0.90
2014,02,16,05,50,1.10
2014,02,16,05,51,0.50
2014,02,16,05,52,0.70
2014,02,16,05,53,2.20
2014,02,16,05,54,0.70
2014,02,16,05,55,0.30
2014,02,16,05,56,0.70
2014,02,16,05,57,2.30
2014,02,16,05,58,3.80
2014,02,16,05,59,3.30
2014,02,16,06,00,1.40
2014,02,16,06,01,1.30
2014,02,16,06,02,1.20
2014,02,16,06,03,0.60
2014,02,16,06,04,0.10
2014,02,16,06,05,0.30
2014,02,16,06,06,1.70
2014,02,16,06,07,1.40
2014,02,16,06,08,3.30
2014,02,16,06,09,2.60
2014,02,16,06,10,1.40
2014,02,16,06,11,3.20
2014,02,16,06,12,1.70
2014,02,16,06,13,0.00
2014,02,16,06,14,0.40
2014,02,16,06,15,1.90
2014,02,16,06,16,2.80
2014,02,16,06,17,0.60
2014,02,16,06,18,1.50
2014,02,16,06,19,2.80
2014,02,16,06,20,3.80
2014,02,16,06,21,4.80
2014,02,16,06,22,5.90
2014,02,16,06,23,5.00
2014,02,16,06,24,3.60
2014,02,16,06,25,2.20
2014,02,16,06,26,1.80
2014,02,16,06,27,2.10
2014,02,16,06,28,2.20
2014,02,16,06,29,1.90
2014,02,16,06,30,3.30
2014,02,16,06,31,4.90
2014,02,16,06,32,4.50
2014,02,16,06,33,4.00
2014,02,16,06,34,3.60
2014,02,16,06,35,2.90
2014,02,16,06,36,2.90
2014,02,16,06,37,2.40
2014,02,16,06,38,1.70
2014,02,16,06,39,2.50
2014,02,16,06,40,3.10
2014,02,16,06,41,3.40
2014,02,16,06,42,2.90
2014,02,16,06,43,1.60
2014,02,16,06,44,1.60
2014,02,16,06,45,3.10
2014,02,16,06,46,1.80
2014,02,16,06,47,0.70
2014,02,16,06,48,0.30
2014,02,16,06,49,1.10
2014,02,16,06,50,1.30
2014,02,16,06,51,1.40
2014,02,16,06,52,0.70
2014,02,16,06,53,0.90
2014,02,16,06,54,0.10
2014,02,16,06,55,2.50
2014,02,16,06,56,1.50
2014,02,16,06,57,0.30
2014,02,16,06,58,0.80
2014,02,16,06,59,0.10
2014,02,16,07,00,1.70
2014,02,16,07,01,1.70
2014,02,16,07,02,1.60
2014,02,16,07,03,1.60
2014,02,16,07,04,1.20
2014,02,16,07,05,0.30
2014,02,16,07,06,0.00
2014,02,16,07,07,0.20
2014,02,16,07,08,0.60
2014,02,16,07,09,0.40
2014,02,16,07,10,1.10
2014,02,16,07,11,2.10
2014,02,16,07,12,4.10
2014,02,16,07,13,5.00
2014,02,16,07,14,2.80
2014,02,16,07,15,1.70
2014,02,16,07,16,1.40
2014,02,16,07,17,2.10
2014,02,16,07,18,1.30
2014,02,16,07,19,0.90
2014,02,16,07,20,1.20
2014,02,16,07,21,0.80
2014,02,16,07,22,1.30
2014,02,16,07,23,1.10
2014,02,16,07,24,0.40
2014,02,16,07,25,1.30
2014,02,16,07,26,1.80
2014,02,16,07,27,3.80
2014,02,16,07,28,2.90
2014,02,16,07,29,2.50
2014,02,16,07,30,2.90
2014,02,16,07,31,2.20
2014,02,16,07,32,1.80
2014,02,16,07,33,1.30
2014,02,16,07,34,1.50
2014,02,16,07,35,0.70
2014,02,16,07,36,0.70
2014,02,16,07,37,0.50
2014,02,16,07,38,0.70
2014,02,16,07,39,1.20
2014,02,16,07,40,0.70
2014,02,16,07,41,0.00
2014,02,16,07,42,0.10
2014,02,16,07,43,0.60
2014,02,16,07,44,1.40
2014,02,16,07,45,1.70
2014,02,16,07,46,1.60
2014,02,16,07,47,1.20
2014,02,16,07,48,1.50
2014,02,16,07,49,2.00
2014,02,16,07,50,3.00
2014,02,16,07,51,3.40
2014,02,16,07,52,4.40
2014,02,16,07,53,3.90
2014,02,16,07,54,2.50
2014,02,16,07,55,3.80
2014,02,16,07,56,4.70
2014,02,16,07,57,3.20
2014,02,16,07,58,2.70
2014,02,16,07,59,2.90
2014,02,16,08,00,3.50
2014,02,16,08,01,2.60
2014,02,16,08,02,3.50
2014,02,16,08,03,3.00
2014,02,16,08,04,0.80
2014,02,16,08,05,1.20
2014,02,16,08,06,1.20
2014,02,16,08,07,0.70
2014,02,16,08,08,0.80
2014,02,16,08,09,2.50
2014,02,16,08,10,1.30
2014,02,16,08,11,2.10
2014,02,16,08,12,2.30
2014,02,16,08,13,3.30
2014,02,16,08,14,2.80
2014,02,16,08,15,2.40
2014,02,16,08,16,0.30
2014,02,16,08,17,0.40
2014,02,16,08,18,0.40
2014,02,16,08,19,0.30
2014,02,16,08,20,0.00
2014,02,16,08,21,0.20
2014,02,16,08,22,0.10
2014,02,16,08,23,0.60
2014,02,16,08,24,1.10
2014,02,16,08,25,1.70
2014,02,16,08,26,1.30
2014,02,16,08,27,2.40
2014,02,16,08,28,3.60
2014,02,16,08,29,1.30
2014,02,16,08,30,4.70
2014,02,16,08,31,2.70
2014,02,16,08,32,2.40
2014,02,16,08,33,1.30
2014,02,16,08,34,2.10
2014,02,16,08,35,2.10
2014,02,16,08,36,1.20
2014,02,16,08,37,1.40
2014,02,16,08,38,1.20
2014,02,16,08,39,2.00
2014,02,16,08,40,1.40
2014,02,16,08,41,1.60
2014,02,16,08,42,1.20
2014,02,16,08,43,1.10
2014,02,16,08,44,2.20
2014,02,16,08,45,1.70
2014,02,16,08,46,0.90
2014,02,16,08,47,0.80
2014,02,16,08,48,1.70
2014,02,16,08,49,0.80
2014,02,16,08,50,2.30
2014,02,16,08,51,1.70
2014,02,16,08,52,2.50
2014,02,16,08,53,3.40
2014,02,16,08,54,1.90
2014,02,16,08,55,0.50
2014,02,16,08,56,1.40
2014,02,16,08,57,1.60
2014,02,16,08,58,1.90
2014,02,16,08,59,2.40
2014,02,16,09,00,2.70
2014,02,16,09,01,1.50
2014,02,16,09,02,0.80
2014,02,16,09,03,0.20
2014,02,16,09,04,0.10
2014,02,16,09,05,0.60
2014,02,16,09,06,0.20
2014,02,16,09,07,1.70
2014,02,16,09,08,2.90
2014,02,16,09,09,2.70
2014,02,16,09,10,3.00
2014,02,16,09,11,4.40
2014,02,16,09,12,4.50
2014,02,16,09,13,3.00
2014,02,16,09,14,2.40
2014,02,16,09,15,2.70
2014,02,16,09,16,1.90
2014,02,16,09,17,1.20
2014,02,16,09,18,1.30
2014,02,16,09,19,2.80
2014,02,16,09,20,2.10
2014,02,16,09,21,1.20
2014,02,16,09,22,0.80
2014,02,16,09,23,0.90
2014,02,16,09,24,0.40
2014,02,16,09,25,1.40
2014,02,16,09,26,1.10
2014,02,16,09,27,0.10
2014,02,16,09,28,1.10
2014,02,16,09,29,2.00
2014,02,16,09,30,1.90
2014,02,16,09,31,1.90
2014,02,16,09,32,5.40
2014,02,16,09,33,2.50
2014,02,16,09,34,2.40
2014,02,16,09,35,2.40
2014,02,16,09,36,3.30
2014,02,16,09,37,2.80
2014,02,16,09,38,3.20
2014,02,16,09,39,4.70
2014,02,16,09,40,4.50
2014,02,16,09,41,4.10
2014,02,16,09,42,4.60
2014,02,16,09,43,4.00
2014,02,16,09,44,4.80
2014,02,16,09,45,3.30
2014,02,16,09,46,2.40
2014,02,16,09,47,1.90
2014,02,16,09,48,2.80
2014,02,16,09,49,2.90
2014,02,16,09,50,2.00
2014,02,16,09,51,5.30
2014,02,16,09,52,5.00
2014,02,16,09,53,5.00
2014,02,16,09,54,3.50
2014,02,16,09,55,8.00
2014,02,16,09,56,8.40
2014,02,16,09,57,7.50
2014,02,16,09,58,7.60
2014,02,16,09,59,9.90
2014,02,16,10,00,7.10
2014,02,16,10,01,5.80
2014,02,16,10,02,8.70
2014,02,16,10,03,11.70
2014,02,16,10,04,7.50
2014,02,16,10,05,9.30
2014,02,16,10,06,10.70
2014,02,16,10,07,8.20
2014,02,16,10,08,12.30
2014,02,16,10,09,12.00
2014,02,16,10,10,7.40
2014,02,16,10,11,8.60
2014,02,16,10,12,7.80
2014,02,16,10,13,11.30
2014,02,16,10,14,7.30
2014,02,16,10,15,13.00
2014,02,16,10,16,10.40
2014,02,16,10,17,9.50
2014,02,16,10,18,12.90
2014,02,16,10,19,8.90
2014,02,16,10,20,11.50
2014,02,16,10,21,13.10
2014,02,16,10,22,10.00
2014,02,16,10,23,9.50
2014,02,16,10,24,4.50
2014,02,16,10,25,8.70
2014,02,16,10,26,7.70
2014,02,16,10,27,8.20
2014,02,16,10,28,6.90
2014,02,16,10,29,13.60
2014,02,16,10,30,7.20
2014,02,16,10,31,9.40
2014,02,16,10,32,11.00
2014,02,16,10,33,9.80
2014,02,16,10,34,9.50
2014,02,16,10,35,9.00
2014,02,16,10,36,10.70
2014,02,16,10,37,11.60
2014,02,16,10,38,9.80
2014,02,16,10,39,10.50
2014,02,16,10,40,10.20
2014,02,16,10,41,8.80
2014,02,16,10,42,9.00
2014,02,16,10,43,12.20
2014,02,16,10,44,15.10
2014,02,16,10,45,9.30
2014,02,16,10,46,10.50
2014,02,16,10,47,11.40
2014,02,16,10,48,14.10
2014,02,16,10,49,11.60
2014,02,16,10,50,7.60
2014,02,16,10,51,8.20
2014,02,16,10,52,11.80
2014,02,16,10,53,9.90
2014,02,16,10,54,14.90
2014,02,16,10,55,10.60
2014,02,16,10,56,12.20
2014,02,16,10,57,12.20
2014,02,16,10,58,9.50
2014,02,16,10,59,11.00
2014,02,16,11,00,9.90
2014,02,16,11,01,10.70
2014,02,16,11,02,12.30
2014,02,16,11,03,12.50
2014,02,16,11,04,8.10
2014,02,16,11,05,7.60
2014,02,16,11,06,10.50
2014,02,16,11,07,8.60
2014,02,16,11,08,10.70
2014,02,16,11,09,10.20
2014,02,16,11,10,9.50
2014,02,16,11,11,14.20
2014,02,16,11,12,15.90
2014,02,16,11,13,13.40
2014,02,16,11,14,9.10
2014,02,16,11,15,12.10
2014,02,16,11,16,8.10
2014,02,16,11,17,11.80
2014,02,16,11,18,14.70
2014,02,16,11,19,14.50
2014,02,16,11,20,13.30
2014,02,16,11,21,12.10
2014,02,16,11,22,11.50
2014,02,16,11,23,13.30
2014,02,16,11,24,17.20
2014,02,16,11,25,16.50
2014,02,16,11,26,10.40
2014,02,16,11,27,14.60
2014,02,16,11,28,14.00
2014,02,16,11,29,14.90
2014,02,16,11,30,11.80
2014,02,16,11,31,14.80
2014,02,16,11,32,17.20
2014,02,16,11,33,17.10
2014,02,16,11,34,12.80
2014,02,16,11,35,13.80
2014,02,16,11,36,13.20
2014,02,16,11,37,14.10
2014,02,16,11,38,12.10
2014,02,16,11,39,15.30
2014,02,16,11,40,16.20
2014,02,16,11,41,17.00
2014,02,16,11,42,18.60
2014,02,16,11,43,13.70
2014,02,16,11,44,17.40
2014,02,16,11,45,20.40
2014,02,16,11,46,16.00
2014,02,16,11,47,17.30
2014,02,16,11,48,19.30
2014,02,16,11,49,16.40
2014,02,16,11,50,19.50
2014,02,16,11,51,14.80
2014,02,16,11,52,20.90
2014,02,16,11,53,17.10
2014,02,16,11,54,16.90
2014,02,16,11,55,18.30
2014,02,16,11,56,16.70
2014,02,16,11,57,12.20
2014,02,16,11,58,11.90
2014,02,16,11,59,15.50
2014,02,16,12,00,13.50
2014,02,16,12,01,17.30
2014,02,16,12,02,12.20
2014,02,16,12,03,14.70
2014,02,16,12,04,15.90
2014,02,16,12,05,12.60
2014,02,16,12,06,14.30
2014,02,16,12,07,13.30
2014,02,16,12,08,10.00
2014,02,16,12,09,14.40
2014,02,16,12,10,16.90
2014,02,16,12,11,18.60
2014,02,16,12,12,20.70
2014,02,16,12,13,22.70
2014,02,16,12,14,15.50
2014,02,16,12,15,13.90
2014,02,16,12,16,14.90
2014,02,16,12,17,16.40
2014,02,16,12,18,13.60
2014,02,16,12,19,20.80
2014,02,16,12,20,21.50
2014,02,16,12,21,22.30
2014,02,16,12,22,16.80
2014,02,16,12,23,14.80
2014,02,16,12,24,19.30
2014,02,16,12,25,22.00
2014,02,16,12,26,21.80
2014,02,16,12,27,17.50
2014,02,16,12,28,17.90
2014,02,16,12,29,17.10
2014,02,16,12,30,20.50
2014,02,16,12,31,23.40
2014,02,16,12,32,21.00
2014,02,16,12,33,20.70
2014,02,16,12,34,13.40
2014,02,16,12,35,16.00
2014,02,16,12,36,26.10
2014,02,16,12,37,17.50
2014,02,16,12,38,18.70
2014,02,16,12,39,16.40
2014,02,16,12,40,17.00
2014,02,16,12,41,18.00
2014,02,16,12,42,13.20
2014,02,16,12,43,14.70
2014,02,16,12,44,24.20
2014,02,16,12,45,18.90
2014,02,16,12,46,17.80
2014,02,16,12,47,16.80
2014,02,16,12,48,17.50
2014,02,16,12,49,22.10
2014,02,16,12,50,18.30
2014,02,16,12,51,20.50
2014,02,16,12,52,24.50
2014,02,16,12,53,11.50
2014,02,16,12,54,16.80
2014,02,16,12,55,23.40
2014,02,16,12,56,21.60
2014,02,16,12,57,22.80
2014,02,16,12,58,22.30
2014,02,16,12,59,14.50
2014,02,16,13,00,18.00
2014,02,16,13,01,16.40
2014,02,16,13,02,15.50
2014,02,16,13,03,15.20
2014,02,16,13,04,19.10
2014,02,16,13,05,18.20
2014,02,16,13,06,17.30
2014,02,16,13,07,12.00
2014,02,16,13,08,16.30
2014,02,16,13,09,16.50
2014,02,16,13,10,13.20
2014,02,16,13,11,12.60
2014,02,16,13,12,21.50
2014,02,16,13,13,16.80
2014,02,16,13,14,15.70
2014,02,16,13,15,11.70
2014,02,16,13,16,17.30
2014,02,16,13,17,10.90
2014,02,16,13,18,17.10
2014,02,16,13,19,14.40
2014,02,16,13,20,16.80
2014,02,16,13,21,16.10
2014,02,16,13,22,14.30
2014,02,16,13,23,17.50
2014,02,16,13,24,24.60
2014,02,16,13,25,18.90
2014,02,16,13,26,20.00
2014,02,16,13,27,19.00
2014,02,16,13,28,26.10
2014,02,16,13,29,19.50
2014,02,16,13,30,17.00
2014,02,16,13,31,26.20
2014,02,16,13,32,17.50
2014,02,16,13,33,21.60
2014,02,16,13,34,19.80
2014,02,16,13,35,18.90
2014,02,16,13,36,21.60
2014,02,16,13,37,23.70
2014,02,16,13,38,17.90
2014,02,16,13,39,23.30
2014,02,16,13,40,18.80
2014,02,16,13,41,14.40
2014,02,16,13,42,15.60
2014,02,16,13,43,21.30
2014,02,16,13,44,22.90
2014,02,16,13,45,16.40
2014,02,16,13,46,18.10
2014,02,16,13,47,17.70
2014,02,16,13,48,19.80
2014,02,16,13,49,18.40
2014,02,16,13,50,23.60
2014,02,16,13,51,26.40
2014,02,16,13,52,21.50
2014,02,16,13,53,27.30
2014,02,16,13,54,30.60
2014,02,16,13,55,20.50
2014,02,16,13,56,19.90
2014,02,16,13,57,14.50
2014,02,16,13,58,18.80
2014,02,16,13,59,26.70
2014,02,16,14,00,22.00
2014,02,16,14,01,20.20
2014,02,16,14,02,21.10
2014,02,16,14,03,21.50
2014,02,16,14,04,26.80
2014,02,16,14,05,19.00
2014,02,16,14,06,28.90
2014,02,16,14,07,22.70
2014,02,16,14,08,20.40
2014,02,16,14,09,28.70
2014,02,16,14,10,18.70
2014,02,16,14,11,21.10
2014,02,16,14,12,24.00
2014,02,16,14,13,22.60
2014,02,16,14,14,24.80
2014,02,16,14,15,26.00
2014,02,16,14,16,19.30
2014,02,16,14,17,16.40
2014,02,16,14,18,21.20
2014,02,16,14,19,24.10
2014,02,16,14,20,24.00
2014,02,16,14,21,20.40
2014,02,16,14,22,16.10
2014,02,16,14,23,24.30
2014,02,16,14,24,27.50
2014,02,16,14,25,16.30
2014,02,16,14,26,23.00
2014,02,16,14,27,13.30
2014,02,16,14,28,17.30
2014,02,16,14,29,20.60
2014,02,16,14,30,21.30
2014,02,16,14,31,16.70
2014,02,16,14,32,23.80
2014,02,16,14,33,26.00
2014,02,16,14,34,25.90
2014,02,16,14,35,19.10
2014,02,16,14,36,19.80
2014,02,16,14,37,16.00
2014,02,16,14,38,18.60
2014,02,16,14,39,25.80
2014,02,16,14,40,27.90
2014,02,16,14,41,23.80
2014,02,16,14,42,23.50
2014,02,16,14,43,19.20
2014,02,16,14,44,19.20
2014,02,16,14,45,21.90
2014,02,16,14,46,24.90
2014,02,16,14,47,22.40
2014,02,16,14,48,21.70
2014,02,16,14,49,24.00
2014,02,16,14,50,20.30
2014,02,16,14,51,16.30
2014,02,16,14,52,19.40
2014,02,16,14,53,21.50
2014,02,16,14,54,21.50
2014,02,16,14,55,14.70
2014,02,16,14,56,19.70
2014,02,16,14,57,16.50
2014,02,16,14,58,20.60
2014,02,16,14,59,26.60
2014,02,16,15,00,19.70
2014,02,16,15,01,14.30
2014,02,16,15,02,17.40
2014,02,16,15,03,16.20
2014,02,16,15,04,22.80
2014,02,16,15,05,22.50
2014,02,16,15,06,22.00
2014,02,16,15,07,19.90
2014,02,16,15,08,23.10
2014,02,16,15,09,28.30
2014,02,16,15,10,27.70
2014,02,16,15,11,27.90
2014,02,16,15,12,29.50
2014,02,16,15,13,16.50
2014,02,16,15,14,24.60
2014,02,16,15,15,28.30
2014,02,16,15,16,20.60
2014,02,16,15,17,23.00
2014,02,16,15,18,18.20
2014,02,16,15,19,23.20
2014,02,16,15,20,17.30
2014,02,16,15,21,26.00
2014,02,16,15,22,28.00
2014,02,16,15,23,22.70
2014,02,16,15,24,23.90
2014,02,16,15,25,24.50
2014,02,16,15,26,20.00
2014,02,16,15,27,21.20
2014,02,16,15,28,28.10
2014,02,16,15,29,27.10
2014,02,16,15,30,25.10
2014,02,16,15,31,34.30
2014,02,16,15,32,25.70
2014,02,16,15,33,18.50
2014,02,16,15,34,29.00
2014,02,16,15,35,19.00
2014,02,16,15,36,29.40
2014,02,16,15,37,20.10
2014,02,16,15,38,21.10
2014,02,16,15,39,35.50
2014,02,16,15,40,28.50
2014,02,16,15,41,19.60
2014,02,16,15,42,27.40
2014,02,16,15,43,21.60
2014,02,16,15,44,21.20
2014,02,16,15,45,17.40
2014,02,16,15,46,15.60
2014,02,16,15,47,17.10
2014,02,16,15,48,19.00
2014,02,16,15,49,19.60
2014,02,16,15,50,27.00
2014,02,16,15,51,29.00
2014,02,16,15,52,26.40
2014,02,16,15,53,26.70
2014,02,16,15,54,28.50
2014,02,16,15,55,21.50
2014,02,16,15,56,25.50
2014,02,16,15,57,25.50
2014,02,16,15,58,20.50
2014,02,16,15,59,29.60
2014,02,16,16,00,25.90
2014,02,16,16,01,31.70
2014,02,16,16,02,18.40
2014,02,16,16,03,18.90
2014,02,16,16,04,26.50
2014,02,16,16,05,20.80
2014,02,16,16,06,26.60
2014,02,16,16,07,31.70
2014,02,16,16,08,32.50
2014,02,16,16,09,25.30
2014,02,16,16,10,27.70
2014,02,16,16,11,30.30
2014,02,16,16,12,22.30
2014,02,16,16,13,27.90
2014,02,16,16,14,26.10
2014,02,16,16,15,29.10
2014,02,16,16,16,35.00
2014,02,16,16,17,16.40
2014,02,16,16,18,18.80
2014,02,16,16,19,26.60
2014,02,16,16,20,17.00
2014,02,16,16,21,24.40
2014,02,16,16,22,15.50
2014,02,16,16,23,30.40
2014,02,16,16,24,31.40
2014,02,16,16,25,25.00
2014,02,16,16,26,22.40
2014,02,16,16,27,21.60
2014,02,16,16,28,19.80
2014,02,16,16,29,14.70
2014,02,16,16,30,15.80
2014,02,16,16,31,17.30
2014,02,16,16,32,16.00
2014,02,16,16,33,17.20
2014,02,16,16,34,18.70
2014,02,16,16,35,19.40
2014,02,16,16,36,18.10
2014,02,16,16,37,19.00
2014,02,16,16,38,26.90
2014,02,16,16,39,24.70
2014,02,16,16,40,24.00
2014,02,16,16,41,26.40
2014,02,16,16,42,26.10
2014,02,16,16,43,24.50
2014,02,16,16,44,22.20
2014,02,16,16,45,22.20
2014,02,16,16,46,16.90
2014,02,16,16,47,14.60
2014,02,16,16,48,18.40
2014,02,16,16,49,19.80
2014,02,16,16,50,21.40
2014,02,16,16,51,16.40
2014,02,16,16,52,18.50
2014,02,16,16,53,17.80
2014,02,16,16,54,19.10
2014,02,16,16,55,11.70
2014,02,16,16,56,13.90
2014,02,16,16,57,13.20
2014,02,16,16,58,12.00
2014,02,16,16,59,12.90
2014,02,16,17,00,18.40
2014,02,16,17,01,15.20
2014,02,16,17,02,13.00
2014,02,16,17,03,11.90
2014,02,16,17,04,9.50
2014,02,16,17,05,14.80
2014,02,16,17,06,13.80
2014,02,16,17,07,13.90
2014,02,16,17,08,10.80
2014,02,16,17,09,17.70
2014,02,16,17,10,12.00
2014,02,16,17,11,11.60
2014,02,16,17,12,15.30
2014,02,16,17,13,10.90
2014,02,16,17,14,16.10
2014,02,16,17,15,16.60
2014,02,16,17,16,12.70
2014,02,16,17,17,22.10
2014,02,16,17,18,15.50
2014,02,16,17,19,20.80
2014,02,16,17,20,20.60
2014,02,16,17,21,19.90
2014,02,16,17,22,12.50
2014,02,16,17,23,18.00
2014,02,16,17,24,18.20
2014,02,16,17,25,17.60
2014,02,16,17,26,17.60
2014,02,16,17,27,13.90
2014,02,16,17,28,15.00
2014,02,16,17,29,23.30
2014,02,16,17,30,19.00
2014,02,16,17,31,19.30
2014,02,16,17,32,16.30
2014,02,16,17,33,18.40
2014,02,16,17,34,19.00
2014,02,16,17,35,18.80
2014,02,16,17,36,16.30
2014,02,16,17,37,18.80
2014,02,16,17,38,20.70
2014,02,16,17,39,18.10
2014,02,16,17,40,19.00
2014,02,16,17,41,25.90
2014,02,16,17,42,19.30
2014,02,16,17,43,16.40
2014,02,16,17,44,15.50